Wind_Speed
42 40 39 37 34 33 30 27 25 23 22 20 19 19 19 20 21 22 21 20 20 19 20 20 20 18 16 15 15 14 15 15 15 15 15 15 15 15 14 13 12 11 11 10 10 10 10 9 9 9 9 9 8 8 8 8 8 8 9 9 9 9 9
45 43 41 39 36 34 31 28 26 24 24 22 20 20 21 21 22 23 22 20 19 19 20 20 20 19 17 16 16 15 15 15 16 16 16 16 17 16 15 14 13 12 12 12 11 11 10 9 9 9 9 9 9 9 8 8 8 9 9 9 10 10 10
48 46 44 40 37 35 33 30 28 26 25 23 22 22 22 22 21 22 22 21 19 20 20 20 19 19 18 18 17 16 16 16 16 16 16 16 16 16 16 15 14 14 13 13 12 11 10 10 10 10 10 10 10 10 10 9 9 9 10 10 11 10 10
50 48 45 41 38 36 35 32 29 28 27 25 23 22 22 22 20 20 22 22 20 20 20 19 18 18 19 18 18 17 17 16 17 17 17 16 16 16 17 16 15 15 14 13 13 12 11 11 11 10 10 10 10 10 10 10 10 10 10 11 11 11 11
49 49 45 43 41 38 37 35 31 30 28 26 25 23 22 21 20 20 22 23 22 21 20 19 18 19 19 19 18 18 18 17 17 18 18 17 17 17 17 16 15 15 14 13 13 13 12 11 11 11 10 10 10 10 10 10 11 11 11 11 12 12 11
43 46 44 42 42 40 38 36 34 32 29 27 26 24 23 22 21 21 22 24 24 23 22 21 20 20 20 19 19 18 19 19 19 19 19 18 18 18 17 16 15 15 15 15 14 13 12 12 12 11 11 11 11 11 11 11 11 11 12 12 12 12 12
36 42 42 40 40 40 39 37 36 35 32 29 27 26 25 24 22 21 22 24 25 23 23 22 22 21 20 20 19 19 19 20 20 20 20 19 18 18 17 16 16 15 16 16 15 14 13 12 12 11 12 12 12 12 12 12 12 12 12 12 12 12 13
31 38 40 38 37 39 39 38 38 37 36 33 31 29 28 26 24 23 23 24 24 24 23 23 22 21 21 20 20 20 20 20 20 21 21 20 19 18 18 17 16 16 16 15 14 13 13 12 12 12 12 12 12 12 12 12 12 12 12 12 12 13 13
28 36 39 38 37 37 39 40 40 40 39 36 34 32 30 29 27 26 25 25 24 25 24 23 22 22 21 21 20 20 20 21 21 22 22 22 20 19 18 18 18 17 16 14 13 14 13 13 13 13 13 12 12 12 12 11 12 12 11 12 12 13 13
25 32 37 38 38 38 41 45 46 45 43 41 38 35 33 31 29 27 27 26 26 26 25 23 23 23 22 22 21 21 21 22 22 23 23 23 21 20 19 19 19 18 16 15 15 14 14 14 14 14 13 13 12 12 11 11 11 11 11 12 12 12 13
19 27 33 37 39 38 39 45 49 47 44 44 44 42 39 36 33 30 29 28 27 26 25 25 24 24 24 23 22 22 23 23 23 24 24 23 22 21 21 20 20 19 18 17 16 16 15 16 15 15 14 13 13 13 12 12 12 12 12 13 13 13 13
15 18 25 32 38 40 41 45 48 45 42 41 42 43 43 40 37 35 34 34 32 30 28 27 26 26 24 24 24 23 23 23 24 24 24 23 23 23 22 21 21 20 19 18 18 17 17 17 16 15 15 14 14 14 14 14 13 13 13 13 13 13 13
14 14 17 21 27 33 37 41 45 45 43 41 39 38 39 38 36 35 37 38 35 33 31 29 29 28 26 25 25 24 24 24 24 24 24 24 23 23 24 23 22 21 20 19 19 18 18 18 17 16 15 16 16 16 15 15 15 15 15 14 14 14 14
11 11 12 13 16 20 24 27 32 37 38 39 40 38 37 37 36 37 39 40 36 32 30 27 28 29 28 27 27 26 25 25 25 25 25 24 24 24 24 25 24 23 22 21 20 20 19 19 18 17 17 17 17 17 17 17 17 16 16 15 15 15 15
7 8 9 9 11 13 14 16 20 22 24 29 35 37 37 38 38 38 41 42 38 35 31 27 26 28 29 29 29 28 27 27 27 26 26 25 25 25 25 25 26 25 24 23 23 22 21 20 19 19 19 19 19 19 18 17 17 17 17 17 16 16 16
4 5 7 7 8 10 12 13 13 13 14 18 25 31 34 36 38 39 40 40 39 37 35 30 28 28 29 29 29 29 28 28 28 27 26 26 25 25 25 25 26 26 26 25 24 24 23 22 22 22 21 20 20 20 19 18 18 18 18 18 18 18 19
5 2 4 5 6 7 9 10 11 10 10 13 17 22 26 30 34 38 39 39 39 38 37 34 30 28 28 27 28 29 28 28 28 28 28 28 27 27 26 26 26 26 25 25 24 23 23 23 23 23 22 22 21 21 20 18 18 18 18 19 20 20 21
7 5 2 3 4 4 6 8 9 9 9 11 13 16 20 24 27 31 34 37 38 37 37 35 29 26 27 25 26 27 27 27 28 29 29 30 29 28 27 27 27 26 25 24 23 22 23 23 23 22 22 22 22 21 20 19 19 19 19 20 20 21 21
8 7 4 1 1 2 3 4 6 7 8 8 8 11 15 17 20 21 24 30 35 36 37 35 29 28 28 25 24 26 27 27 27 28 29 30 30 29 27 26 26 26 26 25 24 23 23 22 22 22 22 22 21 21 20 19 19 20 20 21 21 21 21
7 6 5 4 2 1 0 1 2 4 5 5 6 7 10 13 14 14 17 23 29 33 35 34 31 30 28 25 24 25 23 23 23 25 28 30 29 28 28 26 24 25 25 24 23 22 23 22 21 21 21 21 21 21 21 21 21 21 21 21 22 23 23
4 5 5 5 4 3 1 2 2 1 2 4 5 7 9 11 11 10 13 19 24 27 30 31 30 28 26 25 25 23 21 22 22 23 27 28 28 29 28 26 25 25 24 24 23 22 23 23 22 22 22 22 23 23 23 23 23 23 22 22 23 24 25
2 2 4 5 5 4 2 1 2 1 2 3 4 5 6 8 8 7 8 14 20 25 27 27 26 26 25 25 23 22 24 26 25 24 26 27 27 28 28 27 25 23 24 26 26 23 22 24 24 24 25 24 24 25 25 25 25 25 25 25 25 25 26
1 1 2 3 4 5 3 1 1 2 3 2 4 6 3 2 5 6 6 8 13 19 22 23 24 25 25 24 22 22 23 25 23 22 22 23 24 26 27 28 26 23 25 29 28 24 22 24 26 26 27 27 27 27 27 27 28 28 28 28 28 28 28
0 1 1 1 2 3 3 2 0 2 3 3 2 4 4 3 2 1 3 5 8 12 15 18 21 22 22 22 24 25 24 24 23 21 20 23 26 26 26 26 25 24 27 29 28 25 24 25 26 27 28 30 30 30 30 31 32 33 32 32 32 32 31
1 2 2 2 2 1 1 2 1 1 1 1 0 2 4 5 7 5 1 4 7 8 10 13 16 18 20 21 23 23 23 23 22 22 24 27 29 28 26 26 26 25 25 26 27 27 27 28 29 28 29 31 32 34 35 36 36 36 36 36 36 36 35
2 1 1 2 2 2 2 1 1 1 1 1 2 3 3 6 8 8 6 5 5 5 6 8 9 11 15 18 17 18 18 18 18 20 21 23 25 25 25 26 27 27 27 27 28 30 32 33 33 31 30 31 33 35 37 38 37 37 38 39 39 39 39
4 3 2 2 2 2 3 3 3 3 3 3 4 4 4 4 7 8 9 9 7 7 7 6 5 7 12 15 15 15 16 16 16 17 18 18 20 23 24 24 25 27 28 30 31 32 33 34 33 32 31 31 33 35 36 37 37 38 39 41 41 41 42
7 6 5 3 3 4 4 4 4 4 4 4 5 5 5 5 4 5 7 9 11 12 12 11 11 13 15 15 15 15 17 17 15 14 16 18 18 19 20 21 22 24 25 27 28 29 28 28 29 29 30 31 32 32 32 33 35 36 37 39 40 42 43
6 6 6 5 4 5 6 6 6 5 5 5 5 5 6 6 5 5 6 7 9 11 13 14 15 16 16 16 15 15 16 15 12 10 12 15 17 18 19 20 22 23 24 25 26 26 26 26 27 28 29 30 30 29 30 30 30 31 32 34 36 38 39
6 5 5 5 5 5 6 6 7 7 7 6 5 5 6 6 6 6 6 6 7 8 10 12 13 14 15 15 15 14 14 14 12 10 11 12 14 17 19 20 22 24 24 25 25 25 25 26 26 27 28 28 29 28 28 27 27 27 28 30 31 32 34
6 6 6 6 6 5 5 6 7 7 7 7 6 4 4 3 4 3 3 4 5 6 8 10 11 12 14 15 15 15 14 14 14 14 14 14 14 15 15 17 19 21 22 24 25 25 25 25 25 25 25 27 29 29 28 26 26 26 27 28 29 29 31
6 6 7 6 6 6 4 4 5 6 6 6 5 4 3 2 2 1 1 1 1 2 4 6 8 9 11 13 14 14 14 15 15 15 15 15 15 15 15 15 16 17 18 20 21 20 21 21 22 22 22 23 26 29 29 27 26 25 25 26 27 28 30
5 6 6 6 5 4 3 2 2 3 4 4 3 3 3 2 2 1 1 1 1 2 3 4 5 6 7 8 9 11 12 13 14 13 14 14 14 14 14 14 14 14 15 17 17 16 17 18 20 22 23 23 24 26 27 27 26 25 25 25 25 26 26
5 6 6 5 4 4 3 1 1 2 3 3 3 2 1 1 1 1 1 1 1 2 3 4 5 5 6 6 7 8 10 11 11 12 12 12 13 13 13 13 14 14 14 15 16 17 18 18 18 19 20 22 23 24 25 26 26 26 24 23 23 22 21
6 6 6 6 5 5 4 3 2 2 2 3 3 2 2 1 1 1 1 1 1 1 2 3 3 4 5 6 6 6 8 9 10 11 12 12 12 12 12 14 16 17 18 18 18 18 17 15 14 14 15 17 19 22 23 24 24 24 24 23 21 20 19
8 7 7 7 7 7 6 5 4 3 3 3 3 3 3 3 3 3 2 3 3 4 5 4 3 3 4 6 6 6 6 6 8 9 11 12 12 13 13 13 15 16 19 20 21 20 19 16 13 13 14 15 16 16 18 20 22 23 24 23 22 20 19
8 8 8 8 9 9 8 8 6 5 5 4 4 5 5 5 5 6 6 6 7 7 8 8 6 5 4 6 7 7 7 7 8 9 10 11 12 13 14 14 14 15 16 18 20 22 22 21 19 18 18 18 17 16 17 19 20 22 23 24 23 21 20
9 9 9 9 9 9 9 10 9 9 8 7 7 7 7 8 9 9 10 10 10 10 10 10 9 7 6 6 8 9 9 9 10 10 11 12 12 13 13 14 15 15 15 15 16 19 22 24 24 25 25 24 23 22 22 22 23 23 25 26 26 25 23
Wind_Direction
217 215 214 215 217 221 223 224 225 229 232 234 231 223 217 214 214 217 217 214 211 208 208 208 207 207 203 199 199 201 202 202 202 200 200 199 198 199 198 197 199 196 197 204 207 209 212 209 206 208 207 205 206 209 211 213 214 214 215 217 218 218 222
215 215 215 215 215 219 223 225 225 229 232 234 231 224 218 213 214 218 219 216 213 212 212 210 210 209 207 205 203 202 202 203 203 202 202 202 201 201 201 200 200 199 198 204 211 213 214 215 212 212 213 209 208 211 213 215 217 220 223 222 222 224 228
213 213 214 214 215 218 222 224 225 228 231 233 230 222 217 213 212 217 221 219 214 213 215 213 212 211 209 209 208 205 204 204 205 205 204 205 205 204 205 203 201 201 200 202 209 211 210 213 214 213 214 215 214 214 215 215 216 220 224 227 228 228 229
213 213 215 216 217 218 220 223 225 228 230 231 230 225 220 217 214 215 221 223 216 214 216 215 214 213 211 212 211 208 206 205 205 206 205 206 206 206 207 207 205 206 205 204 207 208 208 210 214 214 214 218 220 219 220 220 221 222 222 225 229 230 229
214 214 216 218 218 217 219 222 226 229 230 230 231 229 225 222 218 215 218 222 219 215 217 218 217 216 215 213 212 212 210 207 205 205 205 206 207 208 209 209 209 209 209 208 209 210 209 211 216 218 217 222 225 225 226 226 226 228 227 226 229 230 229
213 214 216 218 220 219 219 222 227 230 231 231 231 231 228 224 220 215 214 219 220 216 215 217 216 217 218 217 215 214 214 211 207 205 205 206 207 208 210 212 212 211 211 211 212 213 212 211 214 218 220 222 225 226 228 228 229 230 230 230 231 232 232
211 212 215 218 219 221 221 223 226 230 233 233 233 235 233 226 220 215 213 216 220 219 217 217 216 216 217 218 218 217 216 215 211 207 206 206 206 206 208 212 214 213 213 212 211 213 214 213 214 217 220 220 221 224 227 229 231 230 230 232 234 236 237
211 211 215 218 220 222 224 226 227 229 232 233 233 235 235 230 224 219 214 214 220 223 220 218 218 218 218 219 219 218 218 217 215 211 208 207 206 204 205 208 211 212 213 211 211 213 214 215 216 218 220 220 219 222 225 228 231 233 234 235 237 238 239
210 211 214 218 222 224 225 228 230 231 232 233 233 234 234 233 228 222 218 217 220 223 222 221 221 220 220 220 220 219 219 219 218 215 212 210 207 205 204 204 206 209 210 209 210 213 215 216 216 217 219 219 221 223 223 226 229 232 235 238 240 239 238
205 210 215 219 223 225 225 225 226 226 227 229 232 234 236 237 234 227 223 223 223 223 221 222 222 222 222 221 221 221 220 220 220 219 217 214 210 207 205 206 207 208 208 209 212 214 216 219 218 218 219 220 223 223 223 226 229 231 234 237 239 240 240
213 208 214 219 223 226 227 227 226 225 223 221 222 225 228 231 232 230 227 227 227 226 225 226 225 222 222 222 221 221 221 220 220 220 221 219 215 212 210 209 210 211 210 211 214 216 218 221 222 222 223 223 224 223 223 226 229 231 234 237 238 240 242
255 227 218 220 224 227 229 230 230 231 233 229 225 225 226 228 230 230 228 225 222 220 218 222 225 223 222 223 223 221 222 222 222 221 222 221 219 217 217 215 214 215 215 214 215 217 219 221 224 226 226 225 225 224 224 225 228 231 234 236 239 241 243
285 263 237 228 231 234 237 236 232 232 236 238 237 236 235 237 238 236 236 233 228 224 219 215 217 219 220 222 223 223 222 223 224 223 222 222 221 219 220 220 219 218 218 218 219 220 221 222 225 227 229 230 230 228 227 228 229 231 233 235 238 242 245
305 281 257 245 243 246 253 255 246 238 236 236 238 240 240 242 244 243 243 241 235 233 230 224 219 218 218 220 221 221 223 224 225 224 222 221 221 219 220 222 224 224 222 221 222 224 226 228 229 231 232 234 236 235 234 234 235 235 235 235 237 241 245
325 299 280 263 251 253 264 268 261 255 250 243 242 243 244 246 248 248 248 245 238 230 228 231 231 225 221 222 220 217 220 223 225 225 224 222 221 220 219 220 223 225 225 224 224 225 227 230 233 235 235 236 239 240 239 238 239 240 241 240 240 241 244
335 288 279 272 262 259 262 264 263 263 261 252 248 248 248 250 251 251 250 250 245 235 227 227 232 230 228 229 227 220 219 222 224 225 224 224 224 222 221 221 222 225 226 227 227 226 227 230 233 234 236 237 240 242 242 242 242 243 245 245 245 244 244
9 322 279 274 269 261 257 260 262 259 253 249 248 249 249 250 252 251 250 249 248 243 233 227 226 227 229 233 231 226 224 226 226 226 225 223 223 223 222 222 222 224 227 229 230 230 230 231 234 236 238 240 242 244 245 246 247 248 249 249 249 248 247
18 12 324 275 269 266 264 265 268 267 258 252 253 254 254 254 254 253 253 251 250 247 238 228 220 221 228 233 232 229 230 232 231 230 229 225 222 221 224 225 223 222 224 227 230 232 233 234 236 239 241 243 245 247 248 247 247 248 249 251 251 250 247
28 34 37 6 296 256 253 258 268 271 266 268 274 268 259 257 257 257 256 252 249 245 238 227 217 216 221 226 231 231 230 233 235 235 235 232 225 221 223 227 231 227 223 223 225 226 229 232 234 237 240 242 244 246 246 245 245 247 248 249 250 250 248
43 55 66 62 42 13 255 187 223 261 282 306 319 297 270 263 263 261 256 250 243 235 230 225 220 220 218 219 226 229 229 233 235 234 237 239 238 233 226 223 230 233 230 229 228 225 225 226 229 233 238 241 244 244 244 243 243 246 248 248 248 248 247
53 65 72 70 55 38 52 161 178 237 308 313 312 306 289 277 272 263 250 242 232 222 220 223 225 226 227 226 226 226 230 235 234 230 232 237 244 246 238 226 225 231 235 238 236 232 232 232 232 234 236 239 242 244 245 247 248 249 250 250 249 248 247
55 73 75 75 66 60 74 176 213 255 317 308 310 316 293 273 277 275 248 231 221 214 215 221 222 221 226 231 229 226 230 234 232 229 231 234 241 249 248 241 235 232 236 242 243 239 240 244 245 245 245 244 244 244 244 247 250 251 251 250 250 249 249
343 72 85 89 76 68 74 95 242 250 254 286 352 18 23 287 292 290 263 234 220 216 216 219 219 218 221 226 228 227 225 225 225 228 231 235 241 248 251 251 250 245 241 245 248 249 250 253 255 255 254 254 254 251 248 248 249 250 251 251 251 250 249
217 172 161 148 114 93 91 89 53 258 246 260 343 39 71 96 86 2 265 239 221 221 222 219 217 218 218 219 221 224 225 224 227 231 234 237 241 244 248 250 252 251 247 246 249 253 258 261 261 260 258 258 259 258 255 253 252 251 250 250 251 251 251
200 174 175 195 212 207 117 101 112 254 254 234 162 112 114 118 117 116 182 231 214 207 212 216 216 218 223 226 228 233 237 235 233 236 240 245 245 245 246 249 251 250 247 245 245 251 257 260 261 264 263 260 259 258 258 256 255 254 254 254 253 253 253
259 237 193 199 222 251 260 250 242 259 269 231 195 183 156 140 142 151 171 207 220 201 206 227 232 232 242 251 253 252 250 244 238 239 245 253 254 250 246 246 249 249 248 247 248 251 255 258 260 263 262 259 257 257 258 259 259 258 258 258 257 256 255
262 267 257 224 223 247 258 262 259 260 268 261 243 236 220 175 160 163 170 185 203 208 212 232 240 240 256 271 276 271 264 257 248 242 243 250 255 252 245 242 245 247 249 251 252 254 256 258 259 259 257 254 254 255 258 261 261 258 257 257 258 259 258
264 271 272 262 241 234 241 245 246 248 255 258 253 250 246 228 200 189 186 188 197 204 208 214 217 226 243 259 264 264 266 266 262 253 249 250 252 253 250 247 246 248 250 252 253 255 256 257 256 256 254 252 252 253 256 259 260 258 256 255 256 257 258
267 270 270 265 244 227 228 231 232 232 231 238 244 243 244 246 246 240 232 218 211 210 211 213 216 223 235 243 246 248 254 262 268 265 261 262 262 262 262 259 257 257 257 256 256 256 256 255 255 255 254 254 254 254 254 256 257 257 256 255 254 254 256
262 260 258 255 243 228 223 223 224 224 220 219 225 229 230 236 241 244 243 239 233 226 222 220 219 221 227 231 233 235 240 248 254 254 256 261 262 260 261 261 262 262 261 260 259 258 257 258 259 259 258 257 257 255 252 251 251 251 252 252 252 253 256
259 259 254 248 245 238 227 217 217 221 219 215 213 216 217 224 234 240 237 236 238 236 234 233 230 229 230 231 232 234 237 242 249 253 256 260 261 260 260 260 262 263 260 258 257 257 259 261 261 262 259 256 256 256 253 251 249 248 249 251 253 255 257
255 261 259 257 256 251 241 219 209 211 214 210 201 194 186 179 195 224 246 262 259 247 241 240 237 236 239 241 243 246 248 250 254 258 259 260 261 263 264 264 266 267 266 265 263 261 262 263 264 265 262 256 252 252 253 253 252 250 250 252 255 257 258
250 262 268 272 275 274 266 238 195 187 193 190 176 172 173 166 164 176 204 316 315 291 276 267 256 249 248 250 254 257 258 260 263 265 264 263 263 265 268 270 274 277 277 276 273 265 259 259 262 267 270 267 259 253 251 253 253 251 252 253 255 259 260
251 258 266 274 286 298 301 277 205 179 177 172 163 161 172 170 156 135 111 69 351 315 303 299 294 289 281 272 268 269 270 270 271 269 268 267 265 265 264 261 259 259 259 260 258 253 250 248 249 255 263 268 264 255 249 250 252 251 250 250 252 256 257
248 250 255 261 268 277 282 280 268 241 217 204 193 191 190 182 171 155 140 147 296 308 307 311 322 323 314 300 287 281 279 279 279 277 275 272 268 266 262 256 250 247 246 246 246 246 245 241 235 238 244 250 253 251 247 247 250 249 247 246 248 250 250
248 249 251 254 257 261 266 273 281 286 284 274 253 240 236 234 227 225 234 259 280 289 291 290 297 315 322 317 309 300 293 290 290 289 286 283 279 273 267 262 256 252 249 248 247 245 241 232 222 222 227 231 241 249 247 245 246 246 244 244 244 245 246
254 256 258 258 257 259 264 271 278 285 290 293 288 277 269 265 263 264 270 279 287 292 294 293 290 291 303 308 307 306 305 304 303 302 299 298 295 289 282 274 266 260 255 252 250 248 246 239 232 229 232 236 245 255 256 252 250 249 248 249 248 245 243
264 264 264 262 259 260 264 270 276 280 282 283 284 282 279 276 275 276 277 280 285 289 292 293 291 289 290 293 295 297 299 301 303 305 306 306 305 302 297 287 277 269 261 256 253 252 253 253 251 249 248 249 254 260 263 261 258 254 253 253 254 251 247
Height
3165 3167 3169 3172 3174 3176 3178 3180 3182 3184 3186 3188 3190 3192 3193 3195 3197 3198 3199 3201 3202 3203 3204 3206 3207 3208 3209 3210 3211 3212 3214 3215 3216 3217 3218 3219 3220 3221 3222 3223 3224 3225 3226 3227 3228 3229 3230 3231 3232 3233 3233 3234 3235 3235 3236 3236 3237 3238 3238 3239 3239 3239 3240
3163 3165 3167 3169 3172 3174 3176 3178 3180 3182 3184 3186 3188 3190 3192 3193 3195 3196 3198 3200 3201 3202 3203 3205 3206 3207 3208 3209 3210 3211 3212 3213 3215 3216 3217 3219 3220 3221 3222 3223 3224 3225 3226 3227 3228 3228 3230 3231 3231 3232 3233 3233 3234 3234 3235 3235 3236 3237 3237 3238 3238 3239 3239
3161 3163 3165 3167 3170 3172 3174 3176 3178 3180 3182 3184 3186 3188 3190 3192 3194 3195 3197 3198 3200 3201 3202 3203 3205 3206 3207 3208 3209 3210 3211 3212 3213 3215 3216 3218 3219 3220 3221 3222 3223 3224 3225 3226 3227 3228 3229 3230 3231 3231 3232 3232 3233 3233 3234 3235 3235 3236 3236 3237 3237 3238 3238
3159 3161 3164 3166 3168 3170 3173 3174 3176 3178 3180 3182 3184 3187 3189 3191 3193 3195 3196 3197 3198 3200 3201 3202 3204 3205 3206 3207 3208 3209 3210 3211 3213 3214 3215 3217 3218 3219 3221 3222 3223 3223 3224 3225 3226 3227 3228 3229 3230 3231 3231 3232 3232 3233 3233 3234 3234 3235 3235 3236 3236 3237 3237
3157 3160 3162 3164 3166 3168 3170 3172 3174 3176 3179 3181 3183 3185 3188 3190 3191 3193 3194 3196 3197 3198 3200 3201 3202 3203 3205 3206 3207 3208 3209 3210 3212 3213 3214 3215 3217 3218 3219 3221 3222 3223 3224 3225 3225 3226 3227 3228 3229 3229 3230 3231 3232 3232 3233 3233 3233 3234 3234 3235 3235 3235 3236
3155 3158 3161 3162 3165 3166 3168 3171 3173 3175 3177 3179 3181 3184 3186 3188 3190 3191 3193 3194 3195 3197 3198 3199 3200 3202 3203 3204 3206 3207 3208 3209 3210 3211 3213 3214 3215 3217 3218 3220 3221 3222 3223 3224 3224 3225 3226 3227 3228 3228 3229 3230 3230 3231 3232 3232 3232 3233 3233 3234 3234 3234 3234
3153 3156 3159 3161 3163 3165 3168 3170 3172 3174 3176 3178 3180 3182 3184 3186 3188 3190 3191 3193 3194 3195 3196 3198 3199 3200 3201 3203 3204 3205 3207 3208 3209 3210 3211 3212 3213 3215 3217 3218 3219 3221 3221 3222 3223 3224 3225 3226 3226 3227 3227 3228 3229 3230 3230 3231 3231 3232 3232 3232 3233 3233 3234
3153 3156 3158 3161 3163 3165 3167 3169 3171 3172 3174 3175 3177 3179 3181 3184 3186 3188 3189 3191 3193 3194 3195 3196 3197 3199 3200 3201 3203 3204 3205 3207 3208 3209 3210 3211 3212 3213 3215 3216 3218 3219 3220 3221 3222 3223 3224 3224 3225 3226 3226 3227 3227 3228 3229 3229 3230 3231 3231 3231 3232 3232 3232
3152 3155 3157 3160 3163 3165 3167 3168 3170 3171 3172 3173 3175 3176 3179 3181 3183 3185 3187 3189 3191 3192 3193 3195 3196 3198 3199 3200 3201 3203 3204 3205 3206 3207 3208 3209 3210 3212 3213 3215 3216 3217 3218 3219 3220 3221 3222 3223 3223 3224 3225 3225 3226 3227 3227 3228 3228 3229 3229 3230 3230 3231 3231
3149 3153 3156 3158 3160 3161 3163 3163 3162 3163 3165 3168 3171 3174 3177 3179 3181 3183 3185 3187 3188 3190 3191 3193 3194 3196 3197 3198 3200 3201 3202 3204 3205 3206 3207 3208 3209 3210 3212 3213 3214 3215 3216 3217 3219 3220 3221 3221 3222 3222 3223 3224 3225 3225 3226 3226 3227 3227 3228 3228 3229 3229 3230
3149 3152 3153 3155 3157 3158 3159 3158 3157 3158 3159 3160 3163 3166 3169 3173 3176 3180 3183 3184 3186 3188 3190 3191 3192 3194 3195 3196 3198 3199 3201 3202 3203 3204 3205 3206 3208 3209 3210 3211 3212 3213 3214 3216 3217 3218 3219 3219 3220 3221 3222 3222 3223 3224 3224 3225 3225 3226 3226 3227 3227 3228 3228
3152 3153 3152 3152 3153 3155 3156 3156 3157 3159 3161 3162 3163 3164 3165 3168 3171 3175 3177 3177 3179 3182 3185 3187 3190 3191 3193 3195 3196 3197 3199 3200 3201 3202 3204 3205 3206 3208 3209 3210 3211 3212 3213 3214 3215 3216 3217 3218 3218 3219 3220 3221 3221 3222 3223 3223 3223 3224 3225 3225 3226 3227 3227
3153 3155 3154 3153 3154 3154 3153 3153 3155 3158 3161 3164 3166 3167 3168 3170 3172 3174 3174 3174 3176 3179 3180 3183 3186 3188 3190 3192 3193 3195 3196 3198 3199 3201 3202 3203 3204 3206 3207 3208 3209 3210 3211 3212 3213 3214 3215 3216 3217 3218 3219 3219 3220 3220 3221 3221 3222 3223 3223 3224 3225 3225 3226
3152 3153 3153 3153 3155 3155 3155 3154 3154 3156 3158 3162 3164 3166 3168 3169 3171 3174 3173 3173 3176 3179 3181 3183 3183 3184 3186 3188 3190 3192 3194 3195 3197 3198 3200 3201 3202 3203 3204 3206 3207 3208 3209 3210 3211 3212 3213 3214 3215 3216 3217 3218 3218 3219 3220 3220 3221 3221 3222 3223 3223 3224 3224
3152 3152 3152 3152 3153 3154 3154 3153 3152 3153 3156 3159 3161 3162 3164 3165 3167 3169 3170 3170 3171 3173 3176 3180 3182 3183 3184 3186 3186 3188 3190 3192 3194 3196 3197 3198 3199 3200 3202 3203 3204 3206 3207 3208 3209 3210 3211 3212 3213 3214 3215 3216 3217 3217 3218 3219 3219 3220 3221 3221 3221 3222 3223
3152 3151 3151 3151 3151 3152 3152 3151 3151 3152 3153 3155 3157 3158 3160 3161 3163 3164 3166 3168 3168 3168 3171 3176 3179 3181 3183 3184 3184 3185 3187 3188 3190 3192 3194 3196 3197 3198 3199 3200 3201 3203 3204 3205 3207 3208 3209 3210 3211 3211 3213 3214 3215 3216 3216 3217 3218 3219 3219 3219 3220 3220 3220
3151 3150 3150 3149 3150 3150 3150 3150 3151 3151 3152 3152 3153 3154 3155 3156 3158 3159 3161 3163 3164 3167 3170 3173 3175 3179 3180 3181 3183 3184 3185 3186 3188 3189 3191 3192 3193 3195 3196 3197 3198 3200 3201 3203 3204 3206 3207 3208 3209 3210 3211 3211 3212 3213 3214 3215 3216 3217 3217 3218 3218 3218 3218
3149 3149 3148 3148 3149 3149 3149 3150 3150 3150 3150 3149 3149 3150 3151 3151 3152 3154 3156 3158 3160 3165 3169 3170 3171 3175 3178 3179 3181 3182 3183 3184 3186 3187 3189 3189 3188 3189 3191 3193 3194 3195 3197 3199 3201 3203 3204 3205 3206 3208 3208 3209 3210 3211 3212 3213 3214 3214 3215 3215 3215 3216 3216
3147 3147 3148 3148 3149 3149 3149 3149 3149 3149 3149 3148 3148 3148 3149 3149 3149 3150 3152 3153 3155 3160 3166 3168 3168 3171 3174 3176 3177 3178 3180 3182 3183 3185 3187 3188 3186 3185 3186 3189 3192 3193 3194 3195 3197 3199 3201 3203 3204 3205 3206 3207 3208 3208 3209 3210 3211 3211 3212 3212 3213 3213 3213
3146 3146 3147 3148 3148 3149 3148 3148 3148 3147 3147 3146 3146 3146 3146 3146 3147 3148 3149 3149 3150 3154 3160 3165 3167 3168 3171 3172 3173 3173 3176 3179 3181 3182 3185 3187 3187 3185 3184 3185 3188 3191 3193 3194 3195 3197 3198 3200 3201 3202 3203 3204 3205 3206 3206 3207 3207 3208 3208 3209 3209 3210 3210
3146 3146 3146 3147 3147 3148 3147 3147 3146 3146 3145 3145 3144 3144 3145 3145 3145 3146 3147 3148 3149 3152 3157 3161 3165 3168 3170 3170 3170 3170 3173 3176 3178 3179 3182 3184 3185 3185 3184 3182 3182 3186 3191 3192 3193 3194 3196 3197 3198 3198 3199 3200 3201 3202 3203 3204 3205 3205 3205 3206 3206 3206 3206
3146 3146 3145 3146 3146 3146 3146 3146 3145 3144 3144 3145 3145 3145 3146 3145 3146 3147 3148 3149 3150 3153 3156 3159 3162 3165 3167 3168 3168 3169 3171 3173 3175 3176 3178 3180 3181 3182 3183 3180 3179 3183 3188 3189 3190 3193 3194 3195 3196 3196 3196 3196 3197 3199 3200 3201 3201 3202 3202 3203 3203 3202 3203
3146 3146 3146 3145 3145 3145 3145 3144 3144 3143 3143 3144 3145 3146 3147 3147 3147 3148 3149 3150 3151 3153 3155 3158 3160 3162 3163 3165 3166 3167 3168 3169 3171 3173 3174 3176 3177 3178 3180 3179 3178 3182 3185 3185 3188 3191 3191 3192 3193 3193 3193 3193 3194 3195 3196 3197 3198 3198 3199 3199 3199 3199 3199
3145 3145 3145 3145 3145 3144 3144 3144 3143 3143 3143 3143 3144 3145 3146 3147 3147 3148 3149 3150 3152 3153 3154 3156 3159 3160 3161 3162 3163 3164 3165 3166 3168 3169 3170 3172 3173 3174 3175 3175 3176 3179 3181 3182 3185 3186 3187 3188 3189 3189 3189 3189 3190 3191 3191 3192 3193 3193 3194 3195 3195 3195 3196
3144 3144 3144 3145 3145 3144 3144 3143 3143 3143 3143 3143 3144 3144 3145 3146 3147 3148 3149 3149 3150 3152 3154 3156 3157 3158 3159 3160 3161 3162 3163 3164 3166 3167 3167 3169 3170 3169 3170 3171 3173 3175 3178 3179 3180 3181 3182 3183 3184 3185 3185 3185 3185 3186 3186 3186 3187 3188 3189 3190 3191 3191 3191
3143 3143 3143 3144 3144 3144 3144 3143 3143 3142 3143 3143 3143 3144 3144 3145 3146 3146 3148 3149 3150 3151 3154 3155 3156 3156 3157 3158 3159 3161 3161 3161 3163 3165 3165 3166 3167 3167 3167 3168 3170 3172 3174 3175 3176 3177 3178 3179 3180 3180 3181 3181 3181 3181 3180 3181 3183 3184 3185 3186 3186 3186 3186
3142 3142 3142 3143 3143 3144 3144 3144 3143 3142 3142 3142 3143 3143 3143 3144 3145 3145 3146 3147 3148 3150 3153 3154 3155 3156 3156 3155 3157 3158 3159 3159 3162 3163 3163 3164 3165 3165 3165 3165 3167 3168 3170 3170 3171 3172 3173 3174 3175 3176 3176 3176 3176 3176 3176 3177 3179 3180 3181 3181 3181 3181 3181
3141 3141 3141 3142 3143 3143 3143 3143 3143 3143 3142 3142 3142 3142 3142 3143 3144 3144 3145 3145 3147 3148 3150 3152 3154 3155 3155 3155 3155 3155 3156 3156 3159 3160 3161 3161 3161 3161 3161 3162 3163 3165 3165 3166 3167 3168 3169 3170 3170 3171 3171 3171 3172 3172 3172 3173 3173 3174 3176 3176 3176 3175 3175
3140 3140 3140 3141 3141 3142 3142 3143 3143 3143 3142 3142 3142 3142 3142 3142 3143 3143 3144 3144 3145 3146 3147 3149 3151 3152 3153 3153 3153 3153 3153 3153 3154 3156 3157 3157 3157 3157 3158 3159 3160 3161 3162 3162 3163 3163 3164 3165 3165 3166 3166 3167 3167 3167 3167 3168 3169 3170 3171 3171 3171 3170 3170
3139 3139 3140 3140 3140 3140 3141 3142 3142 3142 3142 3142 3142 3141 3141 3141 3141 3141 3142 3143 3143 3144 3145 3146 3147 3149 3149 3150 3150 3150 3151 3150 3151 3152 3153 3153 3154 3154 3155 3156 3157 3158 3158 3159 3159 3160 3160 3160 3161 3162 3162 3162 3162 3162 3162 3164 3165 3166 3167 3166 3166 3166 3166
3139 3139 3139 3139 3140 3140 3141 3141 3141 3142 3141 3141 3141 3141 3141 3140 3140 3140 3141 3141 3141 3142 3142 3143 3145 3146 3146 3147 3147 3147 3147 3148 3148 3149 3150 3151 3151 3151 3152 3153 3154 3154 3155 3156 3156 3157 3157 3156 3157 3157 3157 3157 3157 3157 3157 3159 3161 3162 3162 3162 3163 3163 3162
3139 3139 3139 3139 3139 3140 3140 3141 3141 3141 3141 3140 3140 3140 3140 3140 3140 3140 3140 3140 3141 3141 3141 3142 3143 3144 3144 3144 3144 3144 3145 3145 3146 3146 3147 3148 3148 3149 3149 3149 3150 3151 3151 3152 3153 3153 3153 3153 3153 3153 3153 3154 3154 3153 3154 3155 3157 3158 3158 3159 3159 3159 3158
3140 3140 3139 3139 3139 3139 3139 3140 3140 3140 3140 3140 3140 3140 3140 3140 3140 3140 3140 3140 3140 3140 3140 3141 3141 3142 3142 3143 3143 3143 3143 3143 3143 3143 3144 3145 3145 3145 3146 3147 3147 3148 3148 3149 3149 3150 3150 3150 3150 3150 3150 3150 3150 3151 3151 3151 3152 3154 3154 3155 3155 3155 3154
3140 3140 3140 3139 3139 3139 3139 3139 3139 3139 3139 3139 3139 3139 3139 3139 3139 3139 3139 3139 3139 3139 3139 3139 3140 3140 3140 3141 3141 3141 3141 3141 3141 3141 3141 3142 3142 3143 3143 3144 3145 3146 3147 3147 3147 3148 3148 3148 3148 3148 3148 3147 3147 3148 3148 3149 3149 3150 3151 3151 3152 3152 3152
3140 3140 3140 3139 3139 3139 3139 3139 3139 3139 3139 3139 3139 3139 3139 3139 3138 3138 3138 3138 3138 3138 3138 3138 3139 3138 3138 3138 3139 3139 3139 3139 3139 3139 3139 3140 3140 3141 3141 3142 3143 3144 3145 3145 3146 3146 3146 3147 3147 3147 3146 3146 3145 3145 3146 3146 3147 3148 3148 3149 3149 3149 3150
3140 3140 3139 3139 3138 3138 3138 3138 3139 3139 3138 3139 3139 3139 3138 3138 3138 3138 3138 3138 3137 3137 3137 3137 3138 3138 3137 3137 3137 3137 3137 3138 3138 3138 3138 3138 3139 3139 3139 3140 3140 3141 3142 3143 3144 3144 3144 3145 3145 3145 3144 3144 3144 3144 3144 3144 3145 3145 3146 3146 3147 3147 3147
3140 3140 3139 3139 3138 3138 3138 3138 3138 3138 3138 3138 3138 3138 3138 3138 3138 3138 3137 3137 3137 3137 3136 3136 3136 3136 3137 3136 3136 3136 3136 3137 3137 3137 3137 3138 3138 3138 3138 3138 3138 3138 3139 3140 3141 3141 3141 3142 3143 3142 3142 3142 3142 3143 3143 3143 3143 3144 3144 3145 3145 3145 3145
3139 3139 3139 3139 3138 3138 3138 3137 3137 3137 3137 3137 3137 3137 3137 3138 3137 3137 3137 3137 3136 3136 3135 3135 3135 3135 3135 3135 3135 3135 3135 3136 3136 3136 3137 3137 3137 3137 3137 3137 3136 3136 3136 3137 3137 3138 3139 3139 3139 3139 3139 3139 3140 3140 3141 3141 3142 3142 3142 3143 3143 3143 3143